Falfurrias, TX

2:53 PM CDT on September 25, 2016 (GMT -0500)
Falfurrias

Weather History for KBKS - November, 2012

Change the Weather History Date:

Tuesday, November 27, 2012

  Actual Average (KNQI) Record (KNQI)
Temperature  
Mean Temperature 64 °F -  
Max Temperature 72 °F 70 °F 84 °F (2008)
Min Temperature 56 °F 53 °F 28 °F (2010)
Growing Degree Days 14 (Base 50)    
Moisture  
Dew Point 53 °F    
Average Humidity 68    
Maximum Humidity 95    
Minimum Humidity 41    
Precipitation  
Precipitation 0.00 in - - ()
Sea Level Pressure  
Sea Level Pressure 30.25 in    
Wind  
Wind Speed 6 mph (North)    
Max Wind Speed 12 mph    
Max Gust Speed 22 mph    
Visibility 10 miles    
Events      
Averages and records for this station are not official NWS values.
T = Trace of Precipitation, MM = Missing Value Source: NWS Daily Summary

Daily Weather History Graph

Daily Weather History Graph

Search for Another Location

Airport or City:

Trip Planner

Search our weather history database for the weather conditions in past years. The results will help you decide how hot, cold, wet, or windy it might be!

Date:

Astronomy

Nov. 27, 2012 Rise Set
Actual Time 7:02 AM CST 5:38 PM CST
Civil Twilight 6:37 AM CST 6:03 PM CST
Nautical Twilight 6:08 AM CST 6:31 PM CST
Astronomical Twilight 5:40 AM CST 7:00 PM CST
Moon 5:09 PM CST (11/27) 6:10 AM CST (11/27)
Length of Visible Light 11h 26m
Length of Day
10h 35m
Waxing Gibbous, 99% of the Moon is Illuminated
Nov 27
Waxing Gibbous
Nov 28
Full
Dec 6
Last Quarter
Dec 13
New
Dec 19
First Quarter

Hourly Weather History & Observations

Time (CST) Temp. Dew Point Humidity Pressure Visibility Wind Dir Wind Speed Gust Speed Precip Events Conditions
12:15 AM 69.8 °F 64.4 °F 83% 30.07 in 10.0 mi North 10.4 mph - N/A   Overcast
12:35 AM 70.0 °F 63.9 °F 81% 30.06 in 10.0 mi NNE 5.8 mph - N/A   Mostly Cloudy
12:55 AM 68.7 °F 64.4 °F 86% 30.06 in 10.0 mi NE 4.6 mph - N/A   Scattered Clouds
1:15 AM 68.0 °F 64.0 °F 87% 30.06 in 10.0 mi ENE 4.6 mph - N/A   Scattered Clouds
1:55 AM 66.4 °F 63.7 °F 91% 30.07 in 10.0 mi ENE 3.5 mph - N/A   Scattered Clouds
2:15 AM 66.2 °F 63.7 °F 92% 30.07 in 10.0 mi Calm Calm - N/A   Scattered Clouds
2:35 AM 66.0 °F 62.8 °F 89% 30.09 in 10.0 mi Calm Calm - N/A   Scattered Clouds
2:55 AM 64.8 °F 62.4 °F 92% 30.10 in 10.0 mi WSW 3.5 mph - N/A   Mostly Cloudy
3:15 AM 64.0 °F 62.2 °F 94% 30.11 in 10.0 mi WSW 3.5 mph - N/A   Mostly Cloudy
3:35 AM 63.7 °F 61.9 °F 94% 30.11 in 10.0 mi Calm Calm - N/A   Mostly Cloudy
3:55 AM 63.9 °F 62.2 °F 94% 30.12 in 10.0 mi Calm Calm - N/A   Scattered Clouds
4:15 AM 63.5 °F 62.1 °F 95% 30.13 in 10.0 mi Calm Calm - N/A   Scattered Clouds
4:35 AM 63.7 °F 62.2 °F 95% 30.13 in 7.0 mi Calm Calm - N/A   Mostly Cloudy
4:55 AM 63.5 °F 62.1 °F 95% 30.15 in 7.0 mi NNW 3.5 mph - N/A   Mostly Cloudy
5:15 AM 63.7 °F 62.1 °F 94% 30.15 in 10.0 mi North 9.2 mph - N/A   Mostly Cloudy
5:35 AM 64.4 °F 58.8 °F 82% 30.16 in 10.0 mi NNE 10.4 mph - N/A   Scattered Clouds
5:55 AM 63.9 °F 57.0 °F 78% 30.17 in 10.0 mi NNE 8.1 mph - N/A   Scattered Clouds
6:15 AM 63.0 °F 57.0 °F 81% 30.18 in 10.0 mi North 9.2 mph - N/A   Clear
6:35 AM 62.8 °F 55.4 °F 77% 30.19 in 10.0 mi NNE 8.1 mph - N/A   Clear
6:55 AM 62.1 °F 53.8 °F 74% 30.20 in 10.0 mi NNE 5.8 mph - N/A   Clear
7:15 AM 61.0 °F 53.1 °F 75% 30.22 in 10.0 mi NNE 5.8 mph - N/A   Clear
7:35 AM 60.8 °F 53.6 °F 77% 30.23 in 10.0 mi North 5.8 mph - N/A   Clear
7:55 AM 61.3 °F 53.8 °F 76% 30.25 in 10.0 mi North 4.6 mph - N/A   Clear
8:15 AM 62.4 °F 52.7 °F 70% 30.27 in 10.0 mi North 8.1 mph - N/A   Clear
8:35 AM 63.9 °F 52.5 °F 67% 30.28 in 10.0 mi NNW 5.8 mph - N/A   Clear
8:55 AM 64.4 °F 51.8 °F 64% 30.30 in 10.0 mi North 11.5 mph 21.9 mph N/A   Clear
9:15 AM 64.8 °F 52.0 °F 63% 30.31 in 10.0 mi North 11.5 mph 18.4 mph N/A   Clear
9:35 AM 64.6 °F 52.5 °F 65% 30.32 in 10.0 mi North 11.5 mph 17.3 mph N/A   Clear
10:15 AM 65.3 °F 53.4 °F 65% 30.34 in 10.0 mi NNW 8.1 mph - N/A   Clear
10:35 AM 64.6 °F 52.3 °F 64% 30.35 in 10.0 mi NNW 11.5 mph - N/A   Clear
10:55 AM 64.9 °F 52.0 °F 63% 30.35 in 10.0 mi North 11.5 mph 17.3 mph N/A   Clear
11:15 AM 65.3 °F 50.9 °F 60% 30.35 in 10.0 mi NNW 10.4 mph 16.1 mph N/A   Clear
11:35 AM 65.1 °F 48.6 °F 55% 30.34 in 10.0 mi North 10.4 mph - N/A   Clear
11:55 AM 66.4 °F 48.2 °F 52% 30.33 in 10.0 mi NW 9.2 mph 16.1 mph N/A   Clear
12:15 PM 67.3 °F 48.0 °F 50% 30.32 in 10.0 mi NNW 8.1 mph - N/A   Clear
12:35 PM 68.4 °F 48.7 °F 49% 30.31 in 10.0 mi North 8.1 mph 16.1 mph N/A   Clear
12:55 PM 68.5 °F 47.3 °F 47% 30.31 in 10.0 mi North 9.2 mph - N/A   Clear
1:15 PM 68.0 °F 47.7 °F 48% 30.29 in 10.0 mi North 10.4 mph - N/A   Clear
1:35 PM 69.6 °F 48.0 °F 46% 30.28 in 10.0 mi North 8.1 mph - N/A   Clear
1:55 PM 70.5 °F 48.7 °F 46% 30.28 in 10.0 mi NW 10.4 mph - N/A   Clear
2:15 PM 70.7 °F 49.1 °F 46% 30.27 in 10.0 mi NNW 8.1 mph - N/A   Clear
2:35 PM 71.6 °F 49.3 °F 45% 30.27 in 10.0 mi NW 8.1 mph - N/A   Clear
3:15 PM 71.6 °F 48.2 °F 43% 30.26 in 10.0 mi NW 8.1 mph - N/A   Clear
3:35 PM 71.8 °F 48.0 °F 43% 30.26 in 10.0 mi NW 5.8 mph - N/A   Clear
4:15 PM 72.5 °F 47.5 °F 41% 30.27 in 10.0 mi North 8.1 mph - N/A   Clear
4:35 PM 72.3 °F 47.3 °F 41% 30.27 in 10.0 mi North 5.8 mph - N/A   Clear
4:55 PM 71.6 °F 47.7 °F 43% 30.27 in 10.0 mi North 5.8 mph - N/A   Clear
5:15 PM 70.7 °F 48.0 °F 44% 30.27 in 10.0 mi North 5.8 mph - N/A   Clear
5:35 PM 69.3 °F 49.1 °F 49% 30.27 in 10.0 mi North 4.6 mph - N/A   Clear
5:55 PM 67.5 °F 50.0 °F 53% 30.27 in 10.0 mi North 3.5 mph - N/A   Clear
6:15 PM 66.7 °F 50.2 °F 55% 30.28 in 10.0 mi North 3.5 mph - N/A   Clear
6:35 PM 65.3 °F 51.1 °F 60% 30.28 in 10.0 mi North 4.6 mph - N/A   Clear
6:55 PM 64.6 °F 50.7 °F 61% 30.29 in 10.0 mi NNE 5.8 mph - N/A   Clear
7:15 PM 64.4 °F 50.4 °F 60% 30.30 in 10.0 mi NNE 5.8 mph - N/A   Clear
7:35 PM 63.5 °F 50.9 °F 63% 30.30 in 10.0 mi NNE 3.5 mph - N/A   Clear
7:55 PM 62.6 °F 51.1 °F 66% 30.31 in 10.0 mi NNE 3.5 mph - N/A   Clear
8:15 PM 61.7 °F 51.4 °F 69% 30.31 in 10.0 mi North 5.8 mph - N/A   Clear
8:35 PM 61.7 °F 50.7 °F 67% 30.32 in 10.0 mi NNE 3.5 mph - N/A   Clear
8:55 PM 61.7 °F 50.4 °F 66% 30.32 in 10.0 mi North 6.9 mph - N/A   Clear
9:15 PM 61.7 °F 50.0 °F 65% 30.32 in 10.0 mi NNE 5.8 mph - N/A   Clear
9:35 PM 61.2 °F 50.0 °F 67% 30.32 in 10.0 mi NNE 8.1 mph - N/A   Clear
9:55 PM 60.8 °F 50.0 °F 68% 30.33 in 10.0 mi NE 6.9 mph - N/A   Clear
10:15 PM 60.1 °F 50.0 °F 69% 30.34 in 10.0 mi NNE 4.6 mph - N/A   Clear
10:35 PM 59.0 °F 50.0 °F 72% 30.34 in 10.0 mi NNE 3.5 mph - N/A   Clear
10:55 PM 58.1 °F 50.0 °F 74% 30.34 in 10.0 mi NNE 5.8 mph - N/A   Clear
11:15 PM 58.1 °F 49.3 °F 72% 30.35 in 10.0 mi NE 4.6 mph - N/A   Clear
11:35 PM 57.2 °F 49.3 °F 75% 30.35 in 10.0 mi NNE 3.5 mph - N/A   Clear
11:55 PM 56.5 °F 49.3 °F 77% 30.35 in 10.0 mi Calm Calm - N/A   Clear